Location: Drummondville
(45.8830°N, 72.4830°W)
Time: 01:25:43
(UTC-05:00)

Vanguard 1 - All Passes

Search period start: 24 February 2018 00:00
Search period end: 06 March 2018 00:00
Orbit: 650 x 3833 km, 34.2° (Epoch: 23 February)

Date Brightness Start Highest point End Pass type
(mag) Time Alt. Az. Time Alt. Az. Time Alt. Az.
24 Feb - 10:43:17 10° S 10:54:31 19° SSE 11:03:02 10° ESE daylight
24 Feb - 13:02:41 10° SW 13:16:52 35° SSE 13:25:27 10° ESE daylight
24 Feb - 15:26:53 10° WSW 15:38:06 40° S 15:44:37 10° ESE daylight
24 Feb - 17:51:36 10° WSW 17:57:41 23° SSW 18:02:00 10° SSE visible
25 Feb - 11:01:43 10° SSW 11:15:32 24° SSE 11:25:15 10° ESE daylight
25 Feb - 13:23:12 10° SW 13:37:52 39° S 13:46:26 10° ESE daylight
25 Feb - 15:48:03 10° WSW 15:58:54 39° S 16:05:14 10° SE daylight
25 Feb - 18:13:15 10° WSW 18:18:08 18° SW 18:21:51 10° S visible
26 Feb - 09:08:37 10° SSE 09:13:47 11° SE 09:18:29 10° SE daylight
26 Feb - 11:20:59 10° SSW 11:36:32 30° SSE 11:46:54 10° ESE daylight
26 Feb - 13:44:00 10° WSW 13:58:50 43° S 14:07:18 10° ESE daylight
26 Feb - 16:09:18 10° WSW 16:19:38 37° SSW 16:25:46 10° SE daylight
26 Feb - 18:35:28 10° WSW 18:38:29 13° SW 18:41:03 10° SSW visible
27 Feb - 09:23:26 10° S 09:34:41 17° SE 09:43:54 10° ESE daylight
27 Feb - 11:40:49 10° SW 11:57:34 35° SSE 12:08:13 10° E daylight
27 Feb - 14:05:00 10° WSW 14:19:47 45° S 14:28:05 10° ESE daylight
27 Feb - 16:30:40 10° W 16:40:17 33° SSW 16:46:10 10° SE daylight
28 Feb - 09:41:03 10° S 09:55:37 23° SE 10:06:46 10° ESE daylight
28 Feb - 12:01:06 10° SW 12:18:37 40° SSE 12:29:20 10° E daylight
28 Feb - 14:26:09 10° WSW 14:40:41 46° S 14:48:49 10° ESE daylight
28 Feb - 16:52:08 10° W 17:00:49 28° SSW 17:06:23 10° SSE daylight
01 Mar - 09:59:48 10° SSW 10:16:33 28° SSE 10:28:46 10° E daylight
01 Mar - 12:21:42 10° SW 12:39:38 45° S 12:50:18 10° E daylight
01 Mar - 14:47:26 10° WSW 15:01:32 45° S 15:09:27 10° ESE daylight
01 Mar - 17:13:46 10° W 17:21:15 22° SW 17:26:20 10° SSE daylight
02 Mar - 08:05:13 10° SSE 08:14:31 14° SE 08:22:52 10° ESE daylight
02 Mar - 10:19:14 10° SSW 10:37:32 34° SSE 10:50:19 10° E daylight
02 Mar - 12:42:34 10° WSW 13:00:40 48° S 13:11:10 10° ESE daylight
02 Mar - 15:08:48 10° W 15:22:19 42° SSW 15:29:58 10° SE daylight
02 Mar - 17:35:47 10° WSW 17:41:32 17° SW 17:45:50 10° S daylight
03 Mar - 08:21:28 10° S 08:35:16 20° SE 08:47:00 10° ESE daylight
03 Mar - 10:39:10 10° SW 10:58:33 40° SSE 11:11:36 10° E daylight
03 Mar - 13:03:38 10° WSW 13:21:41 51° S 13:31:58 10° ESE daylight
03 Mar - 15:30:14 10° W 15:42:59 38° SSW 15:50:24 10° SE daylight
03 Mar - 17:58:46 10° WSW 18:01:44 12° SW 18:04:17 10° SSW daylight
04 Mar - 08:39:29 10° S 08:56:04 26° SE 09:09:36 10° E daylight
04 Mar - 10:59:29 10° SW 11:19:36 45° SSE 11:32:43 10° E daylight
04 Mar - 13:24:51 10° WSW 13:42:39 51° S 13:52:42 10° ESE daylight
04 Mar - 15:51:46 10° W 16:03:33 33° SSW 16:10:38 10° SSE daylight
05 Mar - 06:53:05 10° SE 06:54:17 10° SE 06:55:27 10° SE daylight
05 Mar - 08:58:25 10° SSW 09:16:55 32° SSE 09:31:32 10° E daylight
05 Mar - 11:20:07 10° SW 11:40:40 49° SSE 11:53:43 10° E daylight
05 Mar - 13:46:11 10° WSW 14:03:34 50° S 14:13:23 10° ESE daylight
05 Mar - 16:13:27 10° W 16:23:59 27° SW 16:30:39 10° SSE daylight
